QPF
0.00 0.01 0.01 0.01 0.01 0.01 0.01 0.02 0.02 0.02 0.02 0.02 0.02 0.02 0.02 0.02 0.03 0.03 0.03 0.04 0.05 0.05 0.06 0.08 0.07 0.05 0.04 0.04 0.06 0.08 0.10 0.12 0.13 0.11 0.08 0.06 0.06 0.05
0.01 0.01 0.01 0.01 0.01 0.01 0.01 0.02 0.02 0.02 0.02 0.02 0.02 0.02 0.02 0.02 0.03 0.03 0.03 0.05 0.06 0.05 0.06 0.07 0.06 0.04 0.03 0.04 0.05 0.07 0.09 0.11 0.12 0.13 0.13 0.11 0.08 0.07
0.02 0.02 0.01 0.01 0.01 0.01 0.02 0.02 0.01 0.02 0.02 0.01 0.02 0.03 0.02 0.03 0.03 0.03 0.03 0.05 0.06 0.06 0.05 0.07 0.06 0.04 0.03 0.04 0.06 0.07 0.08 0.10 0.10 0.10 0.10 0.11 0.10 0.10
0.03 0.03 0.02 0.01 0.01 0.02 0.02 0.02 0.01 0.01 0.02 0.02 0.02 0.03 0.03 0.03 0.03 0.04 0.05 0.06 0.04 0.05 0.05 0.08 0.10 0.06 0.05 0.05 0.07 0.08 0.08 0.08 0.08 0.06 0.06 0.06 0.07 0.08
0.04 0.03 0.02 0.02 0.02 0.02 0.02 0.02 0.02 0.01 0.02 0.02 0.03 0.04 0.04 0.04 0.04 0.04 0.05 0.07 0.05 0.05 0.05 0.07 0.10 0.10 0.06 0.05 0.06 0.08 0.08 0.07 0.05 0.04 0.04 0.04 0.05 0.07
0.03 0.03 0.03 0.02 0.03 0.03 0.02 0.02 0.02 0.02 0.02 0.03 0.04 0.05 0.06 0.05 0.04 0.04 0.06 0.07 0.05 0.04 0.06 0.06 0.08 0.12 0.10 0.07 0.08 0.09 0.09 0.08 0.05 0.04 0.03 0.03 0.04 0.06
0.03 0.03 0.03 0.03 0.03 0.03 0.03 0.02 0.02 0.02 0.03 0.03 0.03 0.05 0.07 0.07 0.04 0.03 0.05 0.06 0.05 0.05 0.06 0.06 0.06 0.08 0.11 0.12 0.12 0.11 0.10 0.10 0.07 0.05 0.04 0.04 0.04 0.05
0.03 0.03 0.03 0.03 0.03 0.03 0.04 0.03 0.03 0.03 0.03 0.03 0.03 0.05 0.08 0.07 0.04 0.03 0.04 0.05 0.05 0.05 0.06 0.07 0.07 0.08 0.11 0.14 0.16 0.14 0.11 0.11 0.08 0.06 0.05 0.04 0.04 0.04
0.02 0.03 0.03 0.03 0.04 0.04 0.03 0.03 0.04 0.04 0.04 0.04 0.04 0.05 0.08 0.07 0.04 0.03 0.04 0.04 0.05 0.06 0.05 0.07 0.07 0.08 0.10 0.14 0.16 0.14 0.12 0.11 0.08 0.07 0.05 0.04 0.03 0.04
0.02 0.02 0.03 0.03 0.03 0.03 0.03 0.03 0.03 0.03 0.04 0.04 0.04 0.05 0.07 0.05 0.04 0.03 0.03 0.04 0.04 0.05 0.04 0.06 0.07 0.08 0.09 0.13 0.15 0.13 0.14 0.11 0.08 0.07 0.05 0.04 0.04 0.04
0.02 0.02 0.02 0.02 0.02 0.02 0.02 0.02 0.03 0.03 0.03 0.05 0.05 0.06 0.06 0.05 0.05 0.04 0.03 0.03 0.03 0.04 0.04 0.05 0.06 0.06 0.08 0.10 0.12 0.12 0.12 0.12 0.10 0.08 0.06 0.05 0.05 0.04
0.02 0.02 0.02 0.02 0.03 0.02 0.02 0.02 0.03 0.03 0.03 0.03 0.04 0.04 0.05 0.04 0.04 0.04 0.03 0.02 0.02 0.03 0.03 0.04 0.05 0.05 0.07 0.08 0.08 0.09 0.09 0.10 0.10 0.09 0.07 0.06 0.05 0.04
0.01 0.02 0.02 0.02 0.03 0.03 0.02 0.02 0.03 0.03 0.03 0.03 0.03 0.03 0.03 0.03 0.04 0.04 0.03 0.03 0.02 0.02 0.02 0.03 0.04 0.04 0.05 0.06 0.06 0.06 0.05 0.06 0.07 0.07 0.06 0.05 0.04 0.04
0.02 0.02 0.02 0.02 0.03 0.03 0.03 0.03 0.03 0.03 0.03 0.02 0.02 0.02 0.02 0.02 0.03 0.03 0.03 0.02 0.02 0.02 0.01 0.02 0.03 0.03 0.04 0.04 0.05 0.05 0.04 0.03 0.04 0.04 0.04 0.03 0.03 0.02
0.01 0.02 0.02 0.02 0.02 0.02 0.03 0.03 0.02 0.03 0.02 0.02 0.02 0.02 0.02 0.02 0.02 0.02 0.02 0.03 0.03 0.02 0.02 0.02 0.02 0.03 0.03 0.04 0.04 0.04 0.03 0.03 0.02 0.03 0.02 0.02 0.01 0.01
0.02 0.02 0.02 0.02 0.02 0.02 0.02 0.02 0.02 0.02 0.02 0.02 0.02 0.02 0.02 0.02 0.02 0.02 0.01 0.02 0.02 0.03 0.03 0.03 0.03 0.03 0.03 0.03 0.03 0.03 0.03 0.03 0.02 0.02 0.02 0.01 0.01 0.01
0.03 0.03 0.02 0.02 0.02 0.02 0.02 0.02 0.02 0.02 0.02 0.02 0.02 0.02 0.02 0.02 0.02 0.02 0.02 0.01 0.01 0.02 0.03 0.03 0.04 0.03 0.03 0.03 0.04 0.04 0.03 0.03 0.02 0.02 0.02 0.01 0.01 0.01
0.03 0.03 0.03 0.02 0.02 0.02 0.02 0.02 0.02 0.02 0.03 0.03 0.03 0.02 0.02 0.02 0.02 0.02 0.02 0.02 0.02 0.02 0.02 0.02 0.03 0.04 0.04 0.04 0.03 0.03 0.02 0.02 0.01 0.01 0.01 0.01 0.01 0.01
0.02 0.02 0.03 0.03 0.03 0.02 0.02 0.02 0.02 0.02 0.03 0.03 0.02 0.02 0.01 0.01 0.02 0.02 0.03 0.03 0.02 0.02 0.02 0.02 0.02 0.03 0.03 0.03 0.03 0.02 0.02 0.01 0.01 0.01 0.01 0.01 0.01 0.01
0.02 0.02 0.03 0.03 0.03 0.03 0.03 0.03 0.03 0.03 0.03 0.03 0.02 0.02 0.02 0.02 0.02 0.02 0.02 0.02 0.02 0.03 0.02 0.02 0.02 0.02 0.03 0.03 0.03 0.02 0.02 0.02 0.02 0.01 0.01 0.01 0.01 0.01
0.02 0.03 0.04 0.04 0.04 0.04 0.03 0.03 0.03 0.03 0.04 0.04 0.03 0.03 0.03 0.02 0.02 0.02 0.03 0.02 0.02 0.02 0.02 0.02 0.01 0.02 0.02 0.02 0.02 0.02 0.02 0.02 0.02 0.02 0.01 0.01 0.01 0.01
0.02 0.03 0.03 0.03 0.03 0.03 0.03 0.03 0.03 0.03 0.04 0.04 0.04 0.04 0.03 0.03 0.02 0.02 0.03 0.03 0.02 0.02 0.02 0.02 0.02 0.02 0.02 0.02 0.02 0.02 0.02 0.02 0.02 0.02 0.02 0.01 0.02 0.02
0.02 0.02 0.02 0.02 0.03 0.03 0.03 0.03 0.03 0.03 0.04 0.04 0.04 0.04 0.03 0.03 0.02 0.02 0.02 0.02 0.02 0.02 0.02 0.02 0.02 0.02 0.02 0.02 0.02 0.01 0.01 0.01 0.01 0.02 0.02 0.02 0.01 0.01
MSLP
1019.27 1018.33 1017.40 1016.46 1015.47 1014.38 1013.15 1011.78 1010.25 1008.59 1006.86 1005.12 1003.44 1001.92 1000.60 999.53 998.73 998.19 997.88 997.76 997.81 997.98 998.24 998.60 999.07 999.65 1000.37 1001.23 1002.24 1003.37 1004.58 1005.82 1007.05 1008.22 1009.27 1010.19 1010.97 1011.61
1018.73 1017.78 1016.86 1015.95 1014.98 1013.92 1012.71 1011.32 1009.76 1008.03 1006.19 1004.31 1002.49 1000.80 999.33 998.13 997.23 996.62 996.30 996.21 996.32 996.58 996.96 997.44 998.02 998.72 999.53 1000.48 1001.56 1002.76 1004.03 1005.34 1006.63 1007.86 1008.98 1009.96 1010.79 1011.48
1018.25 1017.29 1016.36 1015.45 1014.50 1013.44 1012.23 1010.83 1009.22 1007.43 1005.49 1003.48 1001.51 999.67 998.05 996.71 995.70 995.03 994.67 994.61 994.78 995.14 995.65 996.26 996.99 997.81 998.74 999.79 1000.95 1002.21 1003.54 1004.91 1006.26 1007.55 1008.73 1009.77 1010.66 1011.40
1017.89 1016.91 1015.97 1015.04 1014.08 1013.02 1011.80 1010.37 1008.72 1006.86 1004.83 1002.72 1000.62 998.64 996.88 995.42 994.31 993.57 993.20 993.15 993.39 993.85 994.47 995.22 996.08 997.03 998.07 999.20 1000.43 1001.75 1003.13 1004.53 1005.93 1007.27 1008.51 1009.62 1010.58 1011.39
1017.67 1016.67 1015.71 1014.78 1013.80 1012.72 1011.48 1010.02 1008.33 1006.42 1004.32 1002.13 999.93 997.84 995.98 994.43 993.24 992.46 992.08 992.05 992.35 992.89 993.62 994.48 995.44 996.49 997.60 998.79 1000.06 1001.39 1002.79 1004.21 1005.64 1007.02 1008.32 1009.50 1010.53 1011.42
1017.57 1016.57 1015.61 1014.66 1013.67 1012.57 1011.31 1009.83 1008.12 1006.18 1004.05 1001.81 999.56 997.42 995.50 993.90 992.68 991.88 991.50 991.50 991.84 992.45 993.25 994.18 995.20 996.28 997.42 998.61 999.86 1001.17 1002.54 1003.95 1005.37 1006.78 1008.12 1009.37 1010.50 1011.48
1017.57 1016.58 1015.62 1014.66 1013.67 1012.56 1011.29 1009.82 1008.11 1006.18 1004.06 1001.84 999.60 997.47 995.56 993.96 992.75 991.96 991.59 991.62 991.99 992.63 993.45 994.40 995.42 996.48 997.57 998.70 999.87 1001.10 1002.39 1003.75 1005.14 1006.55 1007.93 1009.24 1010.45 1011.54
1017.61 1016.65 1015.70 1014.75 1013.76 1012.67 1011.42 1009.98 1008.32 1006.45 1004.40 1002.25 1000.09 998.04 996.20 994.66 993.49 992.74 992.40 992.45 992.83 993.45 994.25 995.15 996.11 997.08 998.06 999.07 1000.11 1001.21 1002.38 1003.64 1004.97 1006.35 1007.75 1009.11 1010.41 1011.59
1017.66 1016.73 1015.81 1014.89 1013.92 1012.86 1011.66 1010.29 1008.72 1006.95 1005.04 1003.03 1001.02 999.10 997.39 995.96 994.88 994.19 993.88 993.93 994.28 994.86 995.59 996.39 997.22 998.06 998.89 999.72 1000.59 1001.53 1002.55 1003.69 1004.93 1006.26 1007.64 1009.03 1010.39 1011.65
1017.70 1016.80 1015.92 1015.03 1014.11 1013.10 1011.99 1010.71 1009.28 1007.68 1005.94 1004.13 1002.31 1000.59 999.05 997.76 996.79 996.16 995.88 995.92 996.22 996.71 997.33 998.00 998.68 999.35 1000.00 1000.65 1001.34 1002.10 1002.97 1003.97 1005.11 1006.36 1007.70 1009.09 1010.46 1011.77
1017.72 1016.87 1016.03 1015.19 1014.32 1013.39 1012.38 1011.24 1009.97 1008.56 1007.04 1005.46 1003.88 1002.37 1001.02 999.89 999.03 998.47 998.20 998.21 998.44 998.83 999.32 999.84 1000.37 1000.87 1001.35 1001.84 1002.37 1002.98 1003.70 1004.58 1005.60 1006.76 1008.04 1009.38 1010.73 1012.04
1017.77 1016.96 1016.17 1015.38 1014.58 1013.75 1012.84 1011.86 1010.76 1009.56 1008.28 1006.94 1005.60 1004.31 1003.15 1002.18 1001.42 1000.90 1000.64 1000.59 1000.74 1001.02 1001.38 1001.77 1002.16 1002.54 1002.90 1003.26 1003.68 1004.18 1004.80 1005.56 1006.49 1007.55 1008.74 1010.00 1011.28 1012.53
1017.87 1017.11 1016.37 1015.64 1014.92 1014.17 1013.39 1012.55 1011.64 1010.65 1009.59 1008.48 1007.37 1006.30 1005.31 1004.46 1003.79 1003.30 1003.02 1002.92 1002.98 1003.16 1003.41 1003.69 1003.99 1004.28 1004.58 1004.90 1005.26 1005.71 1006.27 1006.97 1007.80 1008.77 1009.85 1011.00 1012.16 1013.30
1018.04 1017.34 1016.65 1015.99 1015.34 1014.70 1014.03 1013.34 1012.59 1011.79 1010.93 1010.03 1009.12 1008.23 1007.39 1006.64 1006.03 1005.56 1005.24 1005.08 1005.06 1005.15 1005.32 1005.55 1005.80 1006.07 1006.37 1006.70 1007.07 1007.53 1008.08 1008.74 1009.52 1010.39 1011.35 1012.36 1013.38 1014.36
1018.27 1017.63 1017.02 1016.43 1015.86 1015.30 1014.75 1014.18 1013.58 1012.94 1012.26 1011.54 1010.79 1010.04 1009.32 1008.66 1008.08 1007.62 1007.27 1007.05 1006.97 1006.99 1007.11 1007.31 1007.56 1007.87 1008.21 1008.60 1009.05 1009.55 1010.13 1010.79 1011.51 1012.30 1013.14 1013.99 1014.83 1015.64
1018.53 1017.97 1017.43 1016.91 1016.43 1015.96 1015.50 1015.04 1014.57 1014.07 1013.53 1012.96 1012.35 1011.73 1011.10 1010.50 1009.95 1009.48 1009.11 1008.85 1008.72 1008.70 1008.80 1009.00 1009.28 1009.64 1010.06 1010.54 1011.07 1011.65 1012.27 1012.92 1013.61 1014.31 1015.02 1015.72 1016.38 1017.00
1018.77 1018.29 1017.83 1017.40 1016.99 1016.62 1016.25 1015.89 1015.53 1015.14 1014.73 1014.27 1013.78 1013.26 1012.72 1012.18 1011.66 1011.20 1010.82 1010.53 1010.37 1010.33 1010.42 1010.62 1010.94 1011.36 1011.85 1012.41 1013.02 1013.65 1014.30 1014.95 1015.60 1016.22 1016.81 1017.35 1017.84 1018.29
1018.94 1018.55 1018.17 1017.83 1017.50 1017.21 1016.93 1016.66 1016.39 1016.11 1015.80 1015.46 1015.08 1014.65 1014.19 1013.72 1013.25 1012.82 1012.44 1012.15 1011.97 1011.91 1011.99 1012.21 1012.54 1012.99 1013.52 1014.12 1014.76 1015.42 1016.07 1016.69 1017.27 1017.80 1018.28 1018.68 1019.03 1019.33
1019.01 1018.70 1018.42 1018.15 1017.91 1017.70 1017.50 1017.32 1017.14 1016.95 1016.75 1016.51 1016.23 1015.91 1015.54 1015.15 1014.75 1014.36 1014.01 1013.73 1013.55 1013.49 1013.55 1013.74 1014.06 1014.50 1015.02 1015.60 1016.23 1016.85 1017.45 1018.02 1018.52 1018.95 1019.32 1019.61 1019.85 1020.04
1019.00 1018.77 1018.56 1018.38 1018.21 1018.07 1017.95 1017.85 1017.75 1017.66 1017.55 1017.41 1017.24 1017.02 1016.76 1016.47 1016.15 1015.83 1015.53 1015.28 1015.11 1015.03 1015.07 1015.22 1015.49 1015.86 1016.32 1016.83 1017.38 1017.92 1018.43 1018.90 1019.31 1019.64 1019.91 1020.11 1020.27 1020.39
1018.95 1018.78 1018.63 1018.52 1018.42 1018.35 1018.30 1018.26 1018.24 1018.23 1018.20 1018.17 1018.10 1017.99 1017.85 1017.66 1017.44 1017.21 1016.97 1016.76 1016.61 1016.52 1016.52 1016.61 1016.80 1017.08 1017.43 1017.82 1018.25 1018.67 1019.06 1019.42 1019.71 1019.95 1020.13 1020.27 1020.38 1020.47
1018.90 1018.78 1018.69 1018.63 1018.58 1018.56 1018.57 1018.59 1018.63 1018.68 1018.74 1018.78 1018.81 1018.81 1018.78 1018.70 1018.58 1018.44 1018.28 1018.12 1017.99 1017.89 1017.86 1017.89 1017.99 1018.15 1018.38 1018.64 1018.92 1019.20 1019.47 1019.70 1019.89 1020.04 1020.15 1020.24 1020.32 1020.40
1018.90 1018.82 1018.77 1018.75 1018.75 1018.77 1018.81 1018.87 1018.95 1019.05 1019.17 1019.28 1019.39 1019.47 1019.53 1019.55 1019.53 1019.48 1019.40 1019.30 1019.20 1019.11 1019.05 1019.03 1019.05 1019.11 1019.22 1019.35 1019.50 1019.65 1019.80 1019.92 1020.02 1020.10 1020.16 1020.21 1020.27 1020.34
Thickness
5447 5448 5450 5452 5453 5456 5458 5461 5467 5473 5479 5479 5479 5479 5481 5484 5487 5490 5493 5496 5499 5502 5505 5507 5508 5510 5511 5513 5514 5516 5517 5518 5520 5521 5522 5523 5523 5523
5436 5437 5439 5441 5444 5446 5448 5451 5455 5459 5464 5468 5468 5469 5470 5473 5476 5479 5482 5485 5488 5490 5493 5494 5496 5497 5499 5501 5502 5503 5505 5506 5507 5508 5509 5510 5511 5511
5426 5428 5430 5432 5434 5437 5438 5441 5444 5447 5450 5454 5456 5458 5460 5463 5465 5468 5471 5474 5478 5479 5481 5483 5485 5487 5488 5489 5490 5491 5493 5494 5496 5497 5497 5499 5499 5500
5417 5419 5421 5423 5425 5428 5429 5432 5435 5437 5440 5443 5446 5448 5450 5453 5455 5457 5460 5463 5466 5468 5471 5473 5475 5476 5477 5478 5479 5480 5482 5483 5484 5486 5487 5487 5487 5487
5409 5411 5413 5415 5417 5419 5421 5423 5425 5427 5429 5432 5436 5438 5441 5442 5444 5446 5449 5453 5455 5458 5460 5462 5464 5465 5465 5466 5467 5469 5470 5472 5473 5475 5475 5475 5475 5475
5401 5402 5404 5407 5409 5410 5413 5415 5416 5417 5420 5422 5425 5428 5430 5432 5434 5436 5439 5441 5444 5446 5448 5450 5452 5453 5454 5455 5457 5458 5459 5460 5462 5464 5464 5464 5463 5463
5393 5394 5396 5398 5399 5402 5404 5406 5406 5408 5410 5412 5415 5418 5420 5421 5424 5425 5427 5430 5433 5435 5437 5439 5441 5443 5443 5444 5446 5446 5447 5449 5451 5452 5452 5452 5452 5452
5384 5386 5388 5390 5391 5393 5395 5396 5397 5399 5401 5403 5406 5408 5410 5411 5414 5415 5417 5420 5423 5424 5424 5426 5428 5430 5431 5433 5434 5435 5436 5437 5438 5439 5440 5441 5442 5442
5376 5378 5380 5382 5383 5385 5386 5386 5388 5389 5391 5393 5395 5397 5399 5402 5403 5404 5406 5408 5410 5410 5411 5414 5415 5417 5418 5420 5421 5423 5424 5425 5425 5426 5428 5429 5429 5430
5369 5370 5372 5374 5376 5377 5378 5378 5380 5381 5383 5384 5386 5388 5388 5389 5391 5393 5394 5395 5396 5397 5398 5402 5403 5404 5405 5406 5408 5410 5411 5412 5413 5414 5415 5416 5417 5418
5362 5363 5365 5367 5369 5369 5370 5371 5372 5373 5373 5374 5376 5377 5378 5379 5379 5381 5382 5384 5386 5387 5387 5388 5390 5391 5392 5394 5395 5396 5398 5399 5400 5401 5402 5404 5405 5406
5355 5357 5358 5360 5362 5363 5364 5365 5365 5366 5366 5367 5367 5367 5368 5368 5368 5369 5371 5373 5375 5375 5376 5375 5377 5378 5380 5382 5383 5385 5386 5387 5388 5389 5390 5392 5392 5394
5349 5351 5353 5354 5355 5356 5357 5358 5359 5358 5359 5358 5358 5358 5358 5359 5359 5359 5359 5361 5363 5364 5365 5364 5366 5367 5368 5370 5372 5373 5375 5376 5377 5378 5380 5380 5381 5382
5343 5345 5347 5347 5349 5349 5350 5351 5351 5351 5351 5351 5350 5350 5350 5350 5349 5349 5350 5351 5352 5354 5355 5355 5357 5358 5359 5360 5362 5363 5365 5366 5368 5369 5370 5370 5371 5372
5337 5339 5340 5341 5342 5343 5343 5343 5343 5344 5344 5344 5343 5343 5342 5341 5341 5341 5342 5343 5344 5345 5347 5347 5349 5350 5351 5352 5353 5355 5356 5358 5359 5360 5361 5362 5363 5364
5331 5333 5334 5335 5336 5336 5337 5337 5337 5337 5337 5336 5336 5335 5334 5333 5334 5335 5336 5337 5337 5338 5338 5340 5341 5343 5344 5344 5346 5347 5348 5349 5350 5351 5353 5354 5354 5356
5325 5326 5328 5329 5330 5330 5330 5330 5330 5330 5330 5329 5329 5328 5328 5327 5327 5328 5329 5330 5331 5332 5332 5333 5333 5335 5336 5338 5339 5340 5341 5342 5342 5343 5345 5347 5348 5349
5318 5320 5321 5322 5323 5323 5324 5324 5324 5324 5324 5323 5323 5323 5323 5322 5322 5322 5323 5324 5325 5326 5327 5327 5328 5330 5331 5332 5331 5332 5333 5334 5335 5336 5337 5340 5342 5343
5312 5314 5315 5316 5316 5317 5317 5318 5318 5317 5317 5317 5317 5317 5317 5317 5317 5317 5318 5319 5320 5320 5321 5322 5323 5325 5327 5327 5326 5324 5326 5328 5328 5330 5331 5333 5335 5337
5306 5307 5309 5309 5310 5310 5311 5311 5311 5311 5311 5312 5312 5312 5313 5313 5313 5313 5313 5314 5314 5315 5315 5316 5317 5319 5320 5321 5320 5319 5319 5321 5323 5324 5326 5327 5329 5331
5300 5301 5302 5303 5304 5304 5305 5305 5305 5306 5306 5307 5307 5308 5308 5308 5308 5308 5309 5309 5309 5310 5311 5312 5312 5312 5313 5314 5315 5316 5316 5316 5317 5318 5320 5322 5325 5327
5294 5295 5296 5297 5298 5299 5299 5299 5300 5300 5301 5301 5302 5303 5303 5303 5304 5304 5305 5305 5305 5306 5306 5307 5307 5308 5310 5311 5312 5312 5313 5313 5314 5315 5315 5317 5319 5322
5289 5290 5291 5292 5293 5294 5294 5295 5295 5296 5296 5297 5297 5298 5299 5299 5300 5300 5300 5301 5301 5302 5302 5303 5304 5305 5306 5307 5307 5308 5308 5310 5312 5313 5314 5314 5314 5315